Content
SEND FEEDBACK

Daily
Averages
Monthly
Summary
United States of America

MARKSVILLE, LOUISIANA


Home > North America > United States > Louisiana
Elevation: 78 feet     Latitude: 31 05N     Longitude: 092 04W

WEATHER
 
SELECT A DAY
Number of Records: 222,249;   Date Range: 1/1/95 - 10/19/14
 
SHARE

PRINT THIS DATA

[ ← Previous Day ]
WEATHER ALMANAC - JANUARY 22, 2013
[ Next Day → ]
[ °C ]   °F
Weather ElementAverageHighLow
Temperature48.2 °F62.1 °F (2:53 pm)37.9 °F (6:53 am)
Dewpoint34.7 °F41 °F (6:53 pm)28.9 °F (5:53 am)
Humidity62 %89 % (10:53 pm)39 % (12:53 pm)
Barometer30.31 in30.37 in (9:53 am)30.27 in (2:53 pm)
Wind Speed2.4 mph5.8 mph (8:53 am)
Weather ElementAverage
Visibility10 mi
Wind DirectionNNE (36.1 °)

Weather ElementTotal
Precipitation---
Heating Degree Days15 (Base 65)
Averaged from 23 records on January 22, 2013
WEATHER CONDITIONS BREAKOUT
WIND DIRECTION BREAKOUT
WEATHER BY HOUR - JANUARY 22, 2013
[ °C ]   °F
Local TimeTemperatureDewpointHumidityBarometerVisibilityWind DirectionWind SpeedGust SpeedPrecipitationEventsConditions
1:53 AM42.1 °F33.1 °F70 %30.28 in10.0 miCalmOvercast
2:53 AM42.1 °F30.9 °F65 %30.28 in10.0 miVariable3.5 mphScattered Clouds
3:53 AM41.0 °F30.0 °F65 %30.29 in10.0 miNE (50°)3.5 mphPartly Cloudy
4:53 AM39.9 °F30.0 °F68 %30.30 in10.0 miENE (60°)4.6 mphPartly Cloudy
5:53 AM39.0 °F28.9 °F67 %30.32 in10.0 miVariable3.5 mphScattered Clouds
6:53 AM37.9 °F30.0 °F73 %30.34 in10.0 miCalmScattered Clouds
7:53 AM41.0 °F30.0 °F65 %30.35 in10.0 miENE (70°)4.6 mphMostly Cloudy
8:53 AM44.1 °F28.9 °F55 %30.35 in10.0 miEast (90°)5.8 mphClear
9:53 AM48.0 °F28.9 °F48 %30.37 in10.0 miENE (70°)4.6 mphClear
10:53 AM52.0 °F30.0 °F43 %30.36 in10.0 miVariable4.6 mphClear
11:53 AM57.0 °F34.0 °F42 %30.34 in10.0 miVariable3.5 mphClear
12:53 PM60.1 °F35.1 °F39 %30.30 in10.0 miCalmScattered Clouds
1:53 PM61.0 °F37.9 °F42 %30.28 in10.0 miWest (260°)3.5 mphMostly Cloudy
2:53 PM62.1 °F37.0 °F39 %30.27 in10.0 miEast (90°)4.6 mphMostly Cloudy
3:53 PM62.1 °F37.9 °F41 %30.27 in10.0 miENE (70°)3.5 mphPartly Cloudy
4:53 PM61.0 °F37.9 °F42 %30.27 in10.0 miENE (70°)4.6 mphClear
5:53 PM54.0 °F39.9 °F59 %30.28 in10.0 miCalmClear
6:53 PM48.0 °F41.0 °F77 %30.29 in10.0 miCalmClear
7:53 PM45.0 °F39.9 °F82 %30.30 in10.0 miCalmScattered Clouds
8:53 PM45.0 °F39.9 °F82 %30.31 in10.0 miCalmPartly Cloudy
9:53 PM44.1 °F39.9 °F85 %30.31 in10.0 miCalmScattered Clouds
10:53 PM42.1 °F39.0 °F89 %30.32 in10.0 miCalmClear
11:53 PM41.0 °F37.9 °F89 %30.32 in10.0 miCalmClear
Hourly data recorded from KESF, located miles away from Marksville, Louisiana







STORIES FROM OUR PARTNERS